Cross City, FL

6:47 AM EST on December 11, 2019 (GMT -0500)
Cross City

Weather History for KCTY - October, 2019

Change the Weather History Date:

Tuesday, October 29, 2019

  Actual Average Record
Temperature  
Mean Temperature 83 °F 67 °F  
Max Temperature 92 °F 80 °F 88 °F (2000)
Min Temperature 73 °F 53 °F 30 °F (2008)
Degree Days  
Heating Degree Days 0    
Month to date heating degree days 4  
Since 1 July heating degree days 4  
Cooling Degree Days 18    
Month to date cooling degree days 315  
Year to date cooling degree days 3072  
Growing Degree Days 32 (Base 50)    
Moisture  
Dew Point 73 °F    
Average Humidity 84    
Maximum Humidity 100    
Minimum Humidity 49    
Precipitation  
Precipitation 0.00 in 0.09 in 0.88 in (2002)
Month to date precipitation 2.54 3.23  
Year to date precipitation 50.01 43.06  
Sea Level Pressure  
Sea Level Pressure 30.07 in    
Wind  
Wind Speed 5 mph (SE)    
Max Wind Speed 10 mph    
Max Gust Speed -    
Visibility 8 miles    
Events Thunderstorm    
T = Trace of Precipitation, MM = Missing Value Source: NWS Daily Summary

Daily Weather History Graph

Daily Weather History Graph

Search for Another Location

Airport or City:

Astronomy

Oct. 29, 2019 Rise Set
Actual Time 7:43 AM EDT 6:48 PM EDT
Civil Twilight 7:18 AM EDT 7:12 PM EDT
Nautical Twilight 6:50 AM EDT 7:40 PM EDT
Astronomical Twilight 6:22 AM EDT 8:08 PM EDT
Moon 9:11 AM EDT (10/29) 8:17 PM EDT (10/29)
Length of Visible Light 11h 53m
Length of Day
11h 05m
Waxing Crescent, 3% of the Moon is Illuminated
Oct 29
Waxing Crescent
Nov 4
First Quarter
Nov 12
Full
Nov 19
Last Quarter
Nov 26
New

Hourly Weather History & Observations

Time (EDT) Temp. Heat Index Dew Point Humidity Pressure Visibility Wind Dir Wind Speed Gust Speed Precip Events Conditions
12:15 AM 74.7 °F - 73.8 °F 97% 30.07 in 7.0 mi Calm Calm - N/A   Unknown
12:35 AM 74.1 °F - 73.2 °F 97% 30.06 in 7.0 mi Calm Calm - N/A   Unknown
12:55 AM 74.3 °F - 73.6 °F 98% 30.06 in 7.0 mi Calm Calm - N/A   Mist
1:15 AM 75.0 °F - 73.9 °F 96% 30.06 in - Calm Calm - N/A   Unknown
1:35 AM 74.8 °F - 73.8 °F 96% 30.06 in 10.0 mi Calm Calm - N/A   Unknown
1:55 AM 73.9 °F - 72.9 °F 96% 30.06 in 10.0 mi Calm Calm - N/A   Unknown
2:15 AM 73.8 °F - 72.9 °F 97% 30.05 in 7.0 mi Calm Calm - N/A   Unknown
2:30 AM 73.4 °F - 72.5 °F 97% 30.05 in 7.0 mi Calm Calm - N/A   Unknown
2:55 AM 73.4 °F - 72.7 °F 98% 30.05 in 7.0 mi Calm Calm - N/A   Unknown
3:15 AM 73.6 °F - 72.7 °F 97% 30.05 in 7.0 mi Calm Calm - N/A   Unknown
3:35 AM 73.8 °F - 73.0 °F 98% 30.05 in 7.0 mi Calm Calm - N/A   Unknown
3:55 AM 73.9 °F - 73.2 °F 98% 30.05 in 7.0 mi Calm Calm - N/A   Unknown
4:15 AM 73.2 °F - 72.5 °F 98% 30.04 in 7.0 mi Calm Calm - N/A   Unknown
4:35 AM 73.8 °F - 73.2 °F 98% 30.04 in 5.0 mi Calm Calm - N/A   Mist
4:55 AM 73.8 °F - 73.2 °F 98% 30.04 in 5.0 mi Calm Calm - N/A   Mist
5:15 AM 73.6 °F - 73.2 °F 99% 30.05 in 4.0 mi Calm Calm - N/A   Mist
5:35 AM 73.8 °F - 73.4 °F 99% 30.05 in 4.0 mi Calm Calm - N/A   Mist
5:55 AM 73.8 °F - 73.4 °F 99% 30.05 in 3.5 mi Calm Calm - N/A   Mist
6:15 AM 73.8 °F - 73.4 °F 99% 30.05 in 3.5 mi East 3.5 mph - N/A   Mist
6:35 AM 74.1 °F - 73.8 °F 99% 30.05 in 3.0 mi Calm Calm - N/A   Mist
6:55 AM 74.3 °F - 73.9 °F 99% 30.06 in 3.0 mi ESE 3.5 mph - N/A   Mist
7:15 AM 74.3 °F - 73.9 °F 99% 30.06 in 2.5 mi Calm Calm - N/A   Mist
7:35 AM 74.1 °F - 73.9 °F 99% 30.06 in 2.5 mi East 3.5 mph - N/A   Mist
7:55 AM 74.3 °F - 73.9 °F 99% 30.06 in 2.5 mi Calm Calm - N/A   Mist
8:15 AM 74.8 °F - 74.5 °F 99% 30.07 in 4.0 mi Calm Calm - N/A   Mist
8:35 AM 75.4 °F - 75.0 °F 99% 30.08 in 5.0 mi ESE 3.5 mph - N/A   Mist
8:55 AM 76.3 °F - 75.6 °F 98% 30.08 in 7.0 mi ESE 5.8 mph - N/A   Unknown
9:15 AM 77.9 °F - 75.9 °F 94% 30.08 in 10.0 mi SSE 4.6 mph - N/A   Unknown
9:35 AM 79.2 °F - 76.1 °F 90% 30.09 in 10.0 mi ESE 4.6 mph - N/A   Unknown
9:55 AM 81.0 °F 87.1 °F 75.6 °F 84% 30.09 in 10.0 mi SE 6.9 mph - N/A   Unknown
10:15 AM 82.8 °F 90.4 °F 75.7 °F 79% 30.09 in 10.0 mi SSE 5.8 mph - N/A   Unknown
10:35 AM 83.7 °F 91.3 °F 75.0 °F 75% 30.09 in 10.0 mi South 8.1 mph - N/A   Unknown
10:55 AM 85.1 °F 92.9 °F 74.5 °F 70% 30.10 in 10.0 mi SE 6.9 mph - N/A   Unknown
11:15 AM 86.2 °F 94.6 °F 74.5 °F 68% 30.10 in 10.0 mi South 6.9 mph - N/A   Unknown
11:35 AM 86.7 °F 95.0 °F 74.1 °F 66% 30.10 in 10.0 mi SSE 8.1 mph - N/A   Unknown
11:55 AM 87.3 °F 95.3 °F 73.9 °F 64% 30.11 in 10.0 mi South 6.9 mph - N/A   Unknown
12:15 PM 87.8 °F 96.6 °F 74.3 °F 64% 30.10 in 7.0 mi SSE 6.9 mph - N/A   Unknown
12:35 PM 88.0 °F 96.5 °F 74.1 °F 63% 30.09 in 5.0 mi SSE 6.9 mph - N/A   Haze
12:55 PM 88.9 °F 99.2 °F 75.2 °F 64% 30.08 in 10.0 mi SSW 8.1 mph - N/A   Unknown
1:15 PM 88.5 °F 98.3 °F 74.8 °F 64% 30.07 in 10.0 mi SSE 8.1 mph - N/A   Unknown
1:35 PM 89.1 °F 99.1 °F 74.8 °F 63% 30.07 in 10.0 mi SSW 9.2 mph - N/A Thunderstorm Unknown
1:55 PM 87.6 °F 95.7 °F 73.4 °F 63% 30.05 in 10.0 mi South 10.4 mph - N/A   Unknown
2:15 PM 90.9 °F 100.0 °F 73.9 °F 57% 30.04 in 10.0 mi South 11.5 mph - N/A   Unknown
2:35 PM 89.8 °F 98.1 °F 73.2 °F 58% 30.03 in 10.0 mi South 11.5 mph - N/A   Unknown
2:55 PM 90.1 °F 97.8 °F 72.5 °F 56% 30.03 in 10.0 mi South 6.9 mph - N/A   Unknown
3:15 PM 88.0 °F 94.7 °F 72.0 °F 59% 30.03 in 10.0 mi South 8.1 mph - N/A   Unknown
3:35 PM 87.8 °F 95.6 °F 73.4 °F 62% 30.04 in 10.0 mi South 8.1 mph - N/A   Unknown
4:15 PM 86.4 °F 93.8 °F 73.2 °F 65% 30.04 in 10.0 mi WSW 8.1 mph - N/A   Unknown
4:35 PM 86.4 °F 93.8 °F 73.4 °F 65% 30.04 in 10.0 mi WSW 9.2 mph - N/A   Unknown
4:55 PM 85.6 °F 92.6 °F 73.2 °F 66% 30.04 in 10.0 mi SW 8.1 mph - N/A   Unknown
5:15 PM 84.4 °F 90.3 °F 72.5 °F 67% 30.04 in 10.0 mi WSW 5.8 mph - N/A   Unknown
5:35 PM 83.3 °F 88.4 °F 71.8 °F 68% 30.04 in 10.0 mi SW 4.6 mph - N/A   Unknown
5:55 PM 83.1 °F 88.9 °F 72.7 °F 71% 30.04 in 10.0 mi West 3.5 mph - N/A   Unknown
6:15 PM 82.4 °F 88.2 °F 73.2 °F 74% 30.05 in 10.0 mi Calm Calm - N/A   Unknown
6:35 PM 81.0 °F 86.3 °F 74.3 °F 80% 30.06 in 10.0 mi NNW 4.6 mph - N/A   Unknown
6:55 PM 79.5 °F - 74.3 °F 84% 30.06 in 10.0 mi NNW 5.8 mph - N/A   Unknown
7:15 PM 78.4 °F - 74.1 °F 87% 30.06 in 10.0 mi NNE 4.6 mph - N/A   Unknown
7:35 PM 77.9 °F - 73.2 °F 85% 30.07 in 10.0 mi NNE 11.5 mph - N/A   Unknown
7:55 PM 76.3 °F - 72.9 °F 89% 30.07 in 10.0 mi NE 10.4 mph - N/A   Unknown
8:15 PM 75.4 °F - 72.1 °F 90% 30.08 in 10.0 mi NE 8.1 mph - N/A   Unknown
8:35 PM 75.0 °F - 71.8 °F 90% 30.09 in 10.0 mi NE 8.1 mph - N/A   Unknown
8:55 PM 74.7 °F - 71.4 °F 90% 30.09 in 10.0 mi NE 6.9 mph - N/A   Unknown
9:15 PM 74.5 °F - 71.2 °F 90% 30.09 in 10.0 mi NE 5.8 mph - N/A   Unknown
9:35 PM 74.3 °F - 71.1 °F 90% 30.09 in 10.0 mi NE 4.6 mph - N/A   Unknown
9:55 PM 74.1 °F - 71.1 °F 90% 30.09 in 10.0 mi NE 4.6 mph - N/A   Unknown
10:15 PM 74.1 °F - 70.9 °F 90% 30.10 in 10.0 mi ENE 4.6 mph - N/A   Unknown
10:35 PM 73.9 °F - 70.7 °F 90% 30.10 in 10.0 mi NE 3.5 mph - N/A   Unknown
10:55 PM 73.8 °F - 70.7 °F 90% 30.11 in 10.0 mi ENE 4.6 mph - N/A   Unknown
11:15 PM 73.8 °F - 70.7 °F 90% 30.10 in 10.0 mi NE 4.6 mph - N/A   Unknown
11:35 PM 73.9 °F - 70.9 °F 90% 30.11 in 10.0 mi ENE 3.5 mph - N/A   Unknown
11:55 PM 73.6 °F - 70.9 °F 91% 30.10 in 10.0 mi East 4.6 mph - N/A   Unknown